Regional Weather Roundup
Issued by NWS Little Rock, AR

Home | Current Version | Previous Version | Graphics & Text | Print | Product List | Glossary On
Versions: 1 2 3 4 5 6 7 8 9 10 11 12 13 14 15 16 17 18 19 20 21 22 23 24 25 26 27 28 29 30 31 32 33 34 35 36 37 38 39 40 41 42 43 44 45 46 47 48 49 50
000
ASUS44 KLZK 280005
RWRLZK

WEATHER ROUNDUP FOR ARKANSAS
NATIONAL WEATHER SERVICE LITTLE ROCK AR
600 PM CST SAT DEC 27 2014

NOTE: "FAIR" INDICATES FEW OR NO CLOUDS BELOW 12,000 FEET WITH NO
SIGNIFICANT WEATHER AND/OR OBSTRUCTIONS TO VISIBILITY.

ARZ001-003-010-029-280100-
NORTHWEST ARKANSAS

CITY           SKY/WX    TMP DP  RH WIND       PRES   REMARKS
FAYETTEVILLE   CLOUDY    31  30  96 N8        30.24R WCI  23
6HR MIN TEMP:  31; 6HR MAX TEMP:  36; 6HR PCP:  0.09;

FORT SMITH     CLOUDY    36  32  85 NW14G20   30.25R
6HR MIN TEMP:  36; 6HR MAX TEMP:  41; 6HR PCP:  0.10;

HARRISON       CLOUDY    34  32  92 NW14G20   30.19R WCI  25
6HR MIN TEMP:  34; 6HR MAX TEMP:  37; 6HR PCP:  0.19;

BENTONVILLE    CLOUDY    30  27  86 N9        30.24R WCI  22
6HR MIN TEMP:  30; 6HR MAX TEMP:  36; 6HR PCP:  0.04;

ROGERS         CLOUDY    31  29  92 NW10      30.23R WCI  22
6HR MIN TEMP:  31; 6HR MAX TEMP:  34; 6HR PCP:  0.05;

SILOAM SPGS    CLOUDY    30  25  80 N12       30.26R WCI  21
6HR MIN TEMP:  30; 6HR MAX TEMP:  34; 6HR PCP:  0.06;

HIGHFILL       CLOUDY    31  28  89 N12       30.23R WCI  22
6HR MIN TEMP:  31; 6HR MAX TEMP:  35; 6HR PCP:  0.03;

SPRINGDALE     CLOUDY    32  30  93 NW13      30.25R WCI  22
$$

ARZ004-005-016-280100-
NORTH CENTRAL ARKANSAS

CITY           SKY/WX    TMP DP  RH WIND       PRES   REMARKS
BATESVILLE     CLOUDY    43  39  87 NW9G17    30.19R
6HR MIN TEMP:  43; 6HR MAX TEMP:  48;

FLIPPIN        CLOUDY    37  32  81 NW5       30.20R
6HR MIN TEMP:  37; 6HR MAX TEMP:  41; 6HR PCP:  0.33;

MTN HOME       LGT RAIN  36  36 100 NW5       30.19R
6HR MIN TEMP:  36; 6HR MAX TEMP:  40;

$$

ARZ040-041-280100-
WEST CENTRAL ARKANSAS

CITY           SKY/WX    TMP DP  RH WIND       PRES   REMARKS
MENA           CLOUDY    41  39  93 W3        30.19R
MOUNT IDA      LGT RAIN  40  38  93 NW6       30.14R FOG
6HR MIN TEMP:  40; 6HR MAX TEMP:  44; 6HR PCP:  0.29;

$$

ARZ009-017-025-026-028-280100-
NORTHEAST ARKANSAS

CITY           SKY/WX    TMP DP  RH WIND       PRES   REMARKS
CORNING        LGT RAIN  45  45 100 N13G22    30.16R
JONESBORO      CLOUDY    47  44  90 NW10      30.13R
6HR MIN TEMP:  47; 6HR MAX TEMP:  53; 6HR PCP:  0.05;

NEWPORT        LGT RAIN  44  43  97 NW10      30.17R FOG
6HR MIN TEMP:  44; 6HR MAX TEMP:  53; 6HR PCP:  0.03;

WALNUT RIDGE   CLOUDY    45  39  81 NW14      30.15R
6HR MIN TEMP:  45; 6HR MAX TEMP:  52; 6HR PCP:  0.04;

BLYTHEVILLE    CLOUDY    51  50  96 N7        30.11R FOG
6HR MIN TEMP:  51; 6HR MAX TEMP:  51; 6HR PCP:  0.04;

$$

ARZ022-023-033-042-044-280100-
CENTRAL ARKANSAS

CITY           SKY/WX    TMP DP  RH WIND       PRES   REMARKS
LITTLE ROCK    LGT RAIN  45  41  86 N13G23    30.17R FOG
6HR MIN TEMP:  45; 6HR MAX TEMP:  52; 6HR PCP:  0.08;

N LITTLE ROCK  CLOUDY    42  42 100 NW10G18   30.17R
6HR MIN TEMP:  42; 6HR MAX TEMP:  49;

JACKSONVILLE   RAIN      44  43  97 NW10G18   30.17R FOG
6HR MIN TEMP:  44; 6HR MAX TEMP:  53; 6HR PCP:  0.10;

SEARCY         LGT RAIN  44  42  93 NW10      30.20R FOG
6HR MIN TEMP:  44; 6HR MAX TEMP:  53; 6HR PCP:  0.05;

HOT SPRINGS    LGT RAIN  45  42  89 N5        30.15F
6HR MIN TEMP:  44; 6HR MAX TEMP:  48; 6HR PCP:  0.21;

RUSSELLVILLE   CLOUDY    43  41  93 W3        30.17R
6HR MIN TEMP:  43; 6HR MAX TEMP:  47; 6HR PCP:  0.24;

CLINTON        LGT RAIN  39  39 100 CALM      30.19F
$$

ARZ036-280100-
EAST ARKANSAS

CITY           SKY/WX    TMP DP  RH WIND       PRES   REMARKS
WEST MEMPHIS   CLOUDY    52  52 100 N3        30.08F FOG
6HR MIN TEMP:  52; 6HR MAX TEMP:  55; 6HR PCP:  0.19;

$$

ARZ050-053-066-070-073-280100-
SOUTHWEST ARKANSAS

CITY           SKY/WX    TMP DP  RH WIND       PRES   REMARKS
ARKADELPHIA    MOCLDY    47  47 100 VRB6      30.18R
6HR MIN TEMP:  47; 6HR MAX TEMP:  49; 6HR PCP:  0.05;

CAMDEN         LGT RAIN  48  45  87 MISG      30.13R
TEXARKANA      LGT RAIN  45  44  97 N6        30.14F
6HR MIN TEMP:  45; 6HR MAX TEMP:  50; 6HR PCP:  0.01;

EL DORADO      CLOUDY    50  48  93 N15G23    30.10R
6HR MIN TEMP:  50; 6HR MAX TEMP:  61; 6HR PCP:  0.07;

DE QUEEN       RAIN      43  41  93 N3        30.17R FOG
6HR MIN TEMP:  43; 6HR MAX TEMP:  48; 6HR PCP:  0.03;

$$

ARZ056-057-069-280100-
SOUTHEAST ARKANSAS

CITY           SKY/WX    TMP DP  RH WIND       PRES   REMARKS
PINE BLUFF     CLOUDY    47  44  90 N13       30.13R
6HR MIN TEMP:  47; 6HR MAX TEMP:  55; 6HR PCP:  0.06;

STUTTGART      CLOUDY    46  43  87 N16       30.13R
6HR MIN TEMP:  46; 6HR MAX TEMP:  54; 6HR PCP:  0.04;

MONTICELLO     LGT RAIN  52  49  89 VRB6      30.06R
6HR MIN TEMP:  52; 6HR MAX TEMP:  60; 6HR PCP:  1.07;


$$




USA.gov is the U.S. government's official web portal to all federal, state and local government web resources and services.